Location: Gwatt
(46.7204°N, 7.6223°E)
Time: 10:11:52
(UTC+00:00)

CSL-04 Rocket - Pass Details

Date: 18 September 2020
Orbit: 806 x 860 km, 98.9° (Epoch: 24 October)

Event Time Altitude Azimuth Distance (km) Brightness Sun altitude
Rises 18:25:31 0° 166° (SSE) 3,352 6.6 -9.5°
Reaches altitude 10° 18:27:50 10° 167° (SSE) 2,431 5.8 -9.9°
Maximum altitude 18:33:14 82° 255° (WSW) 855 3.8 -10.8°
Drops below altitude 10° 18:38:46 10° 344° (NNW) 2,483 6.6 -11.7°
Sets 18:41:10 0° 345° (NNW) 3,430 7.3 -12.1°
